Weather History for Muskegon, MI

Change the Weather History Date:

Monday, December 2, 2013

  Actual Average Record
Temperature  
Mean Temperature 35 °F 34 °F  
Max Temperature 41 °F 39 °F 64 °F (1982)
Min Temperature 29 °F 29 °F -2 °F (1976)
Degree Days  
Heating Degree Days 30 31  
Month to date heating degree days 56 62  
Since 1 July heating degree days 1327 1429  
Cooling Degree Days 0 0  
Month to date cooling degree days 0 0  
Year to date cooling degree days 626 566  
Moisture  
Dew Point 25 °F    
Average Humidity 72    
Maximum Humidity 92    
Minimum Humidity 51    
Precipitation  
Precipitation 0.00 in 0.10 in 2.58 in (1982)
Month to date precipitation 0.00 0.20  
Year to date precipitation 41.06 31.14  
Snow  
Snow 0.00 in 0.70 in 6.00 in (1919)
Month to date snowfall 0.0 1.3  
Since 1 July snowfall 8.9 7.5  
Snow Depth 0.00 in    
Sea Level Pressure  
Sea Level Pressure 29.93 in    
Wind  
Wind Speed 5 mph (ESE)    
Max Wind Speed 12 mph    
Max Gust Speed 14 mph    
Visibility 9 miles    
Events      
T = Trace of Precipitation, MM = Missing Value Source: NWS Daily Summary

Daily Weather History Graph

Daily Weather History Graph

Search for Another Location

Airport:

Trip Planner

Search our weather history database for the weather conditions in past years. The results will help you decide how hot, cold, wet, or windy it might be!

Date:

Astronomy

Dec. 02, 2013 Rise Set
Actual Time 7:58 AM EST 5:10 PM EST
Civil Twilight 7:26 AM EST 5:42 PM EST
Nautical Twilight 6:50 AM EST 6:17 PM EST
Astronomical Twilight 6:16 AM EST 6:52 PM EST
Moon 7:21 AM EST (12/2) 5:13 PM EST (12/2)
Length of Visible Light 10h 16m
Length of Day
9h 12m
Waning Crescent, 0% of the Moon is Illuminated
Dec 2
Waning Crescent
Dec 2
New
Dec 9
First Quarter
Dec 17
Full
Dec 25
Last Quarter

Hourly Weather History & Observations

Time (EST) Temp. Windchill Dew Point Humidity Pressure Visibility Wind Dir Wind Speed Gust Speed Precip Events Conditions
12:55 AM 35.1 °F - 26.1 °F 70% 30.00 in 10.0 mi Calm Calm - N/A   Overcast
1:55 AM 34.0 °F - 26.1 °F 73% 29.99 in 10.0 mi Calm Calm - N/A   Overcast
2:55 AM 34.0 °F - 25.0 °F 70% 30.00 in 10.0 mi Calm Calm - N/A   Overcast
3:55 AM 33.1 °F 30.0 °F 25.0 °F 72% 29.99 in 10.0 mi ESE 3.5 mph - N/A   Overcast
4:55 AM 30.9 °F 26.2 °F 25.0 °F 79% 29.98 in 10.0 mi ESE 4.6 mph - N/A   Partly Cloudy
5:55 AM 32.0 °F 25.6 °F 27.0 °F 82% 29.97 in 8.0 mi ESE 6.9 mph - N/A   Mostly Cloudy
6:55 AM 32.0 °F 27.5 °F 27.0 °F 82% 29.97 in 7.0 mi ESE 4.6 mph - N/A   Mostly Cloudy
7:55 AM 28.9 °F - 26.1 °F 89% 29.97 in 6.0 mi Calm Calm - N/A   Mostly Cloudy
8:55 AM 30.0 °F 25.2 °F 27.0 °F 88% 29.97 in 4.0 mi ESE 4.6 mph - N/A   Mostly Cloudy
9:55 AM 35.1 °F 27.9 °F 28.9 °F 78% 29.95 in 6.0 mi SE 9.2 mph - N/A   Haze
10:55 AM 37.0 °F 31.6 °F 28.9 °F 73% 29.94 in 10.0 mi SE 6.9 mph - N/A   Mostly Cloudy
11:55 AM 39.0 °F 34.8 °F 28.0 °F 65% 29.94 in 10.0 mi SE 5.8 mph - N/A   Mostly Cloudy
12:55 PM 39.9 °F - 24.1 °F 53% 29.92 in 10.0 mi Calm Calm - N/A   Mostly Cloudy
1:55 PM 41.0 °F 38.0 °F 25.0 °F 53% 29.90 in 10.0 mi ESE 4.6 mph - N/A   Mostly Cloudy
2:55 PM 41.0 °F 37.1 °F 25.0 °F 53% 29.88 in 10.0 mi ESE 5.8 mph - N/A   Overcast
3:55 PM 39.9 °F 35.1 °F 25.0 °F 55% 29.88 in 10.0 mi East 6.9 mph - N/A   Overcast
4:55 PM 37.9 °F 33.5 °F 26.1 °F 62% 29.88 in 10.0 mi East 5.8 mph - N/A   Mostly Cloudy
5:55 PM 36.0 °F 33.3 °F 25.0 °F 64% 29.88 in 10.0 mi ENE 3.5 mph - N/A   Mostly Cloudy
6:55 PM 33.1 °F 28.7 °F 24.1 °F 70% 29.88 in 10.0 mi East 4.6 mph - N/A   Scattered Clouds
7:55 PM 32.0 °F 25.6 °F 23.0 °F 69% 29.90 in 10.0 mi ENE 6.9 mph - N/A   Partly Cloudy
8:55 PM 33.1 °F 27.7 °F 23.0 °F 66% 29.90 in 10.0 mi East 5.8 mph - N/A   Partly Cloudy
9:55 PM 32.0 °F 24.8 °F 21.9 °F 66% 29.88 in 10.0 mi East 8.1 mph - N/A   Mostly Cloudy
10:55 PM 32.0 °F 24.8 °F 21.9 °F 66% 29.88 in 10.0 mi East 8.1 mph - N/A   Scattered Clouds
11:55 PM 33.1 °F 24.9 °F 21.9 °F 64% 29.89 in 10.0 mi East 10.4 mph - N/A   Overcast